Find Starlink 30955

NORAD ID: 58417 Int'l Des: 2023-180 Owner: SPXS Country: US Constellation: starlink operational
LEOCIRCULAR

Current View

Loading 3D Globe...

About Starlink 30955

Starlink 30955 (NORAD 58417) is a starlink constellation satellite (v2 mini) launched Nov 22, 2023 by SPXS of US. It operates in LEO, CIRCULAR orbit with a mass of 730.00 kg.

About Starlink 30955

Description loading...

Upcoming Passes

Passes for default location (London). Set your location on the main map for personalized predictions.

Altitude History

Loading altitude history...

Two-Line Element Set

1 58417U 23180R 26175.28800447 -.00000270 00000-0 -28227-6 0 9991
2 58417 43.0000 170.1131 0001050 274.3154 85.7578 15.27574201143934
Epoch: Jun 24, 2026 • Age: 14 hours

Current Status

Altitude 486.4 km
Velocity 7.63 km/s
Sub-Earth Point 41.18°N, 2.18°E
Launch Date Nov 22, 2023
Age 2.5 years
Type internet

Technical Details

Classification Payload
Mass 730.00 kg
Dry Mass 700.00 kg
Total Mass 730.00 kg
Length 0.30 m
Diameter 4.10 m
Span 29.00 m
Shape Box + pan
Manufacturer SPXS
Bus Type Starlink V2M
Phase Status In Orbit
Owner/State SPXS/US

Most Searched